{"data":{"norad_id":58876,"intl_designator":"2024-020A","name":"STARLINK-31306","alt_names":[],"object_type":"PAYLOAD","status":"ACTIVE","operator":null,"country":"US","launch_date":"2024-01-29","launch_site_code":"AFWTR","launch_vehicle":null,"mission":null,"orbit_class":"UNKNOWN","rcs_meters":null,"size_class":null,"mass_kg":null,"dimensions":null,"purposes":["comms"],"wikipedia_slug":null,"has_3d_model":false,"image_url":null,"decayed_at":null,"tle_current":{"epoch":"2026-09-19T08:30:43.563168Z","epoch_age_seconds":251468,"freshness":"STALE","line1":"1 58876U 24020A   26262.35467087  .00001479  00000+0  54926-4 0  9990","line2":"2 58876  53.1597 139.2133 0001093  88.6836 271.4292 15.34386491148958","mean_motion":15.34386491,"eccentricity":0.0001093,"inclination_deg":53.1597,"raan_deg":139.2133,"arg_perigee_deg":88.6836,"mean_anomaly_deg":271.4292,"bstar":5.4926e-5,"rev_number":14895,"period_min":93.848584332981,"perigee_km":461.99568386973,"apogee_km":463.49110032344,"semimajor_km":6840.8803920966,"source":"CELESTRAK","updated_at":"2026-09-21T09:00:33.991763Z"}}}